Weather reports worldwide

Advertisment
List/Sylt, Germany (10020): temperature & dewpoint: 20.09.2020 13:00:00 - 26.09.2020 13:00:00 (CEST)List/Sylt, Germany (10020): temperature 5cm & temperature -5cm: 20.09.2020 13:00:00 - 26.09.2020 13:00:00 (CEST)List/Sylt, Germany (10020): temperature -20cm: 20.09.2020 13:00:00 - 26.09.2020 13:00:00 (CEST)List/Sylt, Germany (10020): wind speed & gusts: 20.09.2020 13:00:00 - 26.09.2020 13:00:00 (CEST)List/Sylt, Germany (10020): wind direction: 20.09.2020 13:00:00 - 26.09.2020 13:00:00 (CEST)List/Sylt, Germany (10020): reduced air pressure: 20.09.2020 13:00:00 - 26.09.2020 13:00:00 (CEST)List/Sylt, Germany (10020): visibility: 20.09.2020 13:00:00 - 26.09.2020 13:00:00 (CEST)List/Sylt, Germany (10020): sunshine duration: 20.09.2020 13:00:00 - 26.09.2020 13:00:00 (CEST)List/Sylt, Germany (10020): precipitation: 20.09.2020 13:00:00 - 26.09.2020 13:00:00 (CEST)
Date & Time tt [°C] td [°C] tt 5cm [°C] tt -5cm [°C] tt -20cm [°C] ff [km/h] ff [kn] fx [km/h] fx [kn] dd ppp [hPa] vv [km] sd [min] rr [mm]
26.09.2020 13:00:00 15,9 10,9 19,4 14,2 13,6 29 16 39 21 N 999,2 52 10 0,0
26.09.2020 12:00:00 13,7 11,7 15,1 13,4 13,5 24 13 33 18 NNE 998,6 13 0 0,0
26.09.2020 11:00:00 13,9 10,3 14,0 13,1 13,4 13 7 19 10 WNW 998,2 54 0 0,0
26.09.2020 10:00:00 14,2 9,3 14,6 12,8 13,4 13 7 22 12 W 997,5 66 0 0,0
26.09.2020 09:00:00 13,6 8,4 13,4 12,4 13,4 11 6 17 9 WSW 997,2 60 0 0,0
26.09.2020 08:00:00 13,0 8,6 12,1 12,2 13,4 9 5 15 8 SW 996,8 58 0 0,0
26.09.2020 07:00:00 12,7 7,2 11,6 12,0 13,4 11 6 14 8 WSW 996,1 60 0 0,0
26.09.2020 06:00:00 12,5 7,0 11,3 11,7 13,5 11 6 17 9 WSW 996,5 55 0 0,0
26.09.2020 05:00:00 12,0 6,5 8,1 11,6 13,6 10 6 13 7 W 996,0 52 0 0,0
26.09.2020 04:00:00 12,1 6,5 8,6 11,7 13,7 10 5 14 7 W 996,0 48 0 0,0
26.09.2020 03:00:00 12,0 6,2 8,8 11,7 13,8 10 5 15 8 WNW 996,0 59 0 0,0
26.09.2020 02:00:00 11,3 5,7 7,4 11,8 14,0 11 6 19 10 WNW 996,0 58 0 0,0
26.09.2020 01:00:00 12,0 5,6 8,7 12,0 14,1 12 7 19 10 WNW 996,2 59 0 0,0
26.09.2020 00:00:00 11,4 5,7 7,9 12,1 14,3 12 7 17 9 WNW 996,2 52 0 0,0
25.09.2020 23:00:00 11,7 6,0 6,1 12,4 14,5 6 3 9 5 W 996,4 41 0 0,0
25.09.2020 22:00:00 12,0 6,2 5,4 12,8 14,7 8 4 11 6 WSW 996,5 40 0 0,0
25.09.2020 21:00:00 11,9 6,3 8,4 13,4 14,8 9 5 16 9 WSW 996,2 52 0 0,0
25.09.2020 20:00:00 12,4 7,8 9,0 14,0 14,9 10 5 17 9 SW 996,2 41 0 0,0
25.09.2020 19:00:00 12,8 7,5 11,2 14,7 14,9 13 7 20 11 SW 996,0 67 20 0,0
25.09.2020 18:00:00 14,6 7,2 16,1 15,2 14,9 16 9 29 16 SW 996,0 75 45 0,0
25.09.2020 17:00:00 15,2 8,7 19,0 15,5 14,8 21 11 35 19 SSW 995,8 69 24 0,0
25.09.2020 16:00:00 14,1 8,6 15,6 15,8 14,7 23 12 38 20 SSW 995,4 61 41 0,0
25.09.2020 15:00:00 14,6 8,5 17,5 15,2 14,5 24 13 32 18 S 995,2 60 4 0,0
25.09.2020 14:00:00 14,3 9,1 15,6 14,4 14,5 24 13 35 19 S 995,4 53 0 0,0
25.09.2020 13:00:00 14,1 9,7 15,0 14,3 14,5 26 14 38 20 S 995,2 60 0 0,0
25.09.2020 12:00:00 13,4 10,9 14,6 14,0 14,4 20 11 56 30 SSW 995,2 55 0 0,0
25.09.2020 11:00:00 13,7 11,7 13,7 13,9 14,4 33 18 48 26 SSE 994,8 37 0 0,0
25.09.2020 10:00:00 13,8 10,2 13,9 13,7 14,5 34 18 47 25 SE 994,4 50 0 0,0
25.09.2020 09:00:00 13,8 9,8 13,4 13,5 14,5 29 16 44 24 SE 994,5 59 0 0,0
25.09.2020 08:00:00 14,1 9,7 13,5 13,4 14,6 33 18 47 25 ESE 994,1 52 0 0,0
25.09.2020 07:00:00 13,9 11,0 12,8 13,3 14,6 34 18 44 24 ESE 994,5 50 0 0,0
25.09.2020 06:00:00 13,3 9,6 12,1 13,3 14,7 35 19 44 24 ESE 995,0 44 0 0,0
25.09.2020 05:00:00 13,2 8,5 12,0 13,4 14,8 26 14 37 20 ESE 995,9 47 0 0,0
25.09.2020 04:00:00 13,0 8,7 11,5 13,6 14,9 27 15 35 19 ESE 996,9 50 0 0,0
25.09.2020 03:00:00 13,7 8,9 12,4 13,8 15,1 26 14 38 21 SE 997,9 50 0 0,0
25.09.2020 02:00:00 13,8 9,4 12,3 13,9 15,2 24 13 33 18 SE 998,2 46 0 0,0
25.09.2020 01:00:00 14,0 9,5 12,3 14,2 15,3 22 12 37 20 SE 998,9 52 0 0,0
25.09.2020 00:00:00 14,2 10,2 12,8 14,5 15,3 24 13 36 20 SSE 999,5 40 0 0,0
24.09.2020 23:00:00 16,3 11,5 15,3 14,7 15,4 26 14 42 23 S 999,6 47 0 0,0
24.09.2020 22:00:00 16,2 9,9 14,9 14,8 15,5 30 16 53 28 SSW 999,8 48 0 0,0
24.09.2020 21:00:00 16,4 9,1 15,5 14,9 15,6 40 21 53 29 SSW 999,6 49 0 0,0
24.09.2020 20:00:00 16,3 11,1 15,5 15,1 15,7 40 22 59 32 S 999,6 43 0 0,0
24.09.2020 19:00:00 15,8 9,9 15,1 15,4 15,7 45 25 59 32 S 999,8 48 9 0,0
24.09.2020 18:00:00 15,7 9,6 15,4 15,8 15,8 47 26 62 34 S 1000,0 46 35 0,0
24.09.2020 17:00:00 15,8 9,6 16,7 16,2 15,8 53 28 66 35 S 999,9 44 20 0,0
24.09.2020 16:00:00 16,0 9,7 18,9 16,7 15,7 44 24 60 33 SSW 1000,1 42 49 0,0
24.09.2020 15:00:00 16,7 8,5 20,4 16,7 15,6 40 22 59 32 SW 1000,0 41 58 0,0
24.09.2020 14:00:00 16,1 7,8 18,5 16,4 15,5 46 25 65 35 SW 999,3 54 54 0,0
24.09.2020 13:00:00 16,8 8,3 20,1 15,9 15,4 40 21 67 36 WSW 998,8 39 60 0,0
24.09.2020 12:00:00 16,5 8,5 18,5 15,4 15,4 45 24 69 37 SW 997,9 40 45 0,0
24.09.2020 11:00:00 15,7 8,1 15,4 15,0 15,4 46 25 73 40 SW 997,4 44 58 0,0
24.09.2020 10:00:00 15,7 10,6 15,4 14,7 15,4 45 25 70 38 SW 996,2 32 59 0,0
24.09.2020 09:00:00 14,8 10,1 13,1 14,8 15,5 43 23 69 37 SW 995,1 34 18 0,0
24.09.2020 08:00:00 15,2 11,5 13,4 15,0 15,6 54 29 74 40 SW 993,7 28 0 0,0
24.09.2020 07:00:00 15,3 13,9 14,3 15,1 15,6 42 23 62 34 SSW 992,8 25 0 1,2
24.09.2020 06:00:00 14,9 12,7 13,5 15,3 15,7 49 26 67 36 SSW 992,9 19 0 5,1
24.09.2020 05:00:00 15,9 14,4 15,0 15,6 15,8 45 24 70 38 S 993,5 14 0 1,4
24.09.2020 04:00:00 16,3 13,9 15,0 15,6 15,8 42 23 59 32 SSE 993,8 14 0 0,0
24.09.2020 03:00:00 16,4 14,7 15,3 15,6 15,9 37 20 50 27 SSE 995,2 10 0 0,0
24.09.2020 02:00:00 16,5 14,8 15,0 15,8 15,9 36 19 46 25 S 996,6 26 0 0,0
24.09.2020 01:00:00 16,7 14,7 15,1 16,0 16,0 34 18 46 25 S 997,3 29 0 0,0
24.09.2020 00:00:00 16,8 15,3 15,7 16,1 16,0 26 14 44 24 S 998,1 20 0 0,1
23.09.2020 23:00:00 16,5 15,3 15,7 16,1 16,1 31 17 41 22 S 999,0 17 0 0,0
23.09.2020 22:00:00 16,1 15,3 15,4 16,2 16,1 33 18 45 24 S 999,6 11 0 0,0
23.09.2020 21:00:00 15,6 14,0 14,5 16,5 16,1 34 18 80 43 S 999,6 26 0 2,0
23.09.2020 20:00:00 17,2 15,1 16,8 16,8 16,1 33 18 41 22 SSE 999,6 13 0 0,0
23.09.2020 19:00:00 17,1 15,2 16,2 17,3 16,1 31 17 40 22 SSE 999,8 9 8 0,0
23.09.2020 18:00:00 17,4 15,2 17,9 17,6 16,0 31 17 45 25 S 1000,5 11 14 0,0
23.09.2020 17:00:00 17,8 15,1 19,1 17,8 15,9 31 17 50 27 SSW 1001,3 14 20 0,0
23.09.2020 16:00:00 18,4 15,2 21,9 17,7 15,7 29 16 44 24 SSW 1001,6 19 5 0,0
23.09.2020 15:00:00 18,0 15,1 20,2 17,7 15,6 27 14 43 23 SSW 1001,8 14 3 0,0
23.09.2020 14:00:00 18,4 14,8 21,7 17,6 15,4 38 21 46 25 SSW 1002,1 22 18 0,0
23.09.2020 13:00:00 18,7 14,9 21,6 17,2 15,2 31 17 44 24 SSW 1002,0 18 52 0,0
23.09.2020 12:00:00 18,5 15,0 22,0 16,0 15,1 24 13 38 20 SSW 1002,0 12 30 0,0
23.09.2020 11:00:00 17,4 13,8 17,0 15,5 15,0 29 16 42 23 SSW 1002,3 15 10 0,0
23.09.2020 10:00:00 16,8 14,2 17,4 14,9 15,0 26 14 34 18 S 1002,1 12 19 0,0
23.09.2020 09:00:00 15,8 14,3 15,0 14,5 15,0 22 12 31 17 S 1002,2 3,4 33 0,0
23.09.2020 08:00:00 15,4 14,1 13,9 14,3 15,1 23 12 31 17 SSE 1002,3 3,0 0 0,0
23.09.2020 07:00:00 15,3 14,2 13,5 14,3 15,1 23 12 29 16 S 1002,5 4,0 0 0,0
23.09.2020 06:00:00 15,4 14,2 13,7 14,3 15,2 23 12 30 16 S 1002,9 4,4 0 0,0
23.09.2020 05:00:00 15,2 14,0 13,2 14,4 15,2 20 11 31 17 S 1003,3 4,3 0 0,0
23.09.2020 04:00:00 15,0 14,3 13,4 14,4 15,3 22 12 30 16 S 1003,7 1,8 0 0,0
23.09.2020 03:00:00 14,8 13,8 13,0 14,5 15,4 23 12 31 17 S 1004,1 2,6 0 0,0
23.09.2020 02:00:00 15,1 13,9 13,3 14,6 15,5 20 11 26 14 S 1004,6 6 0 0,0
23.09.2020 01:00:00 15,3 14,3 12,7 14,7 15,6 15 8 23 12 S 1005,0 5 0 0,0
23.09.2020 00:00:00 15,4 14,8 13,5 14,8 15,7 16 9 24 13 S 1005,5 2,6 0 0,0
22.09.2020 23:00:00 15,2 14,7 13,0 14,9 15,8 14 8 19 11 S 1005,9 2,3 0 0,0
22.09.2020 22:00:00 15,1 14,2 11,3 15,3 15,9 10 5 13 7 SSW 1006,4 7 0 0,0
22.09.2020 21:00:00 15,2 13,8 12,3 15,8 16,0 11 6 13 7 SSW 1006,8 10 0 0,0
22.09.2020 20:00:00 15,7 13,2 11,6 16,5 16,1 10 5 14 8 SSW 1007,2 20 2 0,0
22.09.2020 19:00:00 16,5 11,5 14,5 17,4 16,1 11 6 18 10 SW 1007,3 37 60 0,0
22.09.2020 18:00:00 18,4 9,2 19,9 18,2 16,0 14 8 19 11 SW 1007,7 71 60 0,0
22.09.2020 17:00:00 19,3 8,4 23,5 18,9 15,8 16 9 25 14 SW 1008,2 55 60 0,0
22.09.2020 16:00:00 19,4 11,4 25,1 19,2 15,5 19 11 29 16 S 1008,7 39 60 0,0
22.09.2020 15:00:00 20,1 11,5 27,3 19,0 15,1 21 11 27 15 S 1009,2 40 60 0,0
22.09.2020 14:00:00 18,7 12,1 27,3 18,2 14,8 12 7 17 9 SSE 1009,9 37 60 0,0
22.09.2020 13:00:00 17,6 13,7 26,1 17,1 14,5 11 6 18 10 SSE 1010,2 15 60 0,0
22.09.2020 12:00:00 17,8 14,7 23,2 15,9 14,3 12 6 19 10 S 1010,7 8 60 0,0
22.09.2020 11:00:00 16,0 14,0 19,9 14,5 14,2 9 5 17 9 S 1011,0 7 60 0,0
22.09.2020 10:00:00 15,6 13,9 18,0 13,3 14,2 12 6 19 11 SSW 1010,9 8 60 0,0
22.09.2020 09:00:00 15,0 13,8 15,4 12,7 14,2 11 6 18 10 S 1010,9 4,0 60 0,0
22.09.2020 08:00:00 14,3 13,2 11,2 12,5 14,3 11 6 19 10 S 1010,9 4,6 2 0,0
22.09.2020 07:00:00 14,1 12,8 10,4 12,5 14,5 12 7 19 10 S 1011,0 7 0 0,0
22.09.2020 06:00:00 14,3 11,8 9,9 12,5 14,6 14 8 20 11 S 1011,5 23 0 0,1
22.09.2020 05:00:00 13,9 12,1 6,7 12,7 14,8 9 5 16 9 S 1012,3 11 0 0,0
22.09.2020 04:00:00 14,0 11,5 9,0 13,0 14,9 10 6 17 9 S 1012,7 15 0 0,0
22.09.2020 03:00:00 13,1 12,1 9,0 13,3 15,0 9 5 13 7 SSE 1013,4 5 0 0,0
22.09.2020 02:00:00 12,4 12,0 9,6 13,6 15,2 11 6 13 7 SE 1013,5 1,2 0 0,1
22.09.2020 01:00:00 13,0 12,5 10,7 13,9 15,3 11 6 18 10 SE 1013,9 3,1 0 0,1
22.09.2020 00:00:00 12,7 12,4 10,2 14,3 15,4 14 7 17 9 E 1014,8 1,1 0 0,0
21.09.2020 23:00:00 13,3 12,5 11,3 14,6 15,5 15 8 16 9 ENE 1015,2 5 0 0,0
21.09.2020 22:00:00 12,8 12,3 11,5 14,9 15,7 12 6 16 9 NE 1015,4 4,0 0 0,0
21.09.2020 21:00:00 12,6 11,9 11,1 15,5 15,8 13 7 14 8 NNE 1015,5 4,9 0 0,0
21.09.2020 20:00:00 13,6 12,4 11,7 16,1 15,8 7 4 12 6 N 1015,6 7 8 0,0
21.09.2020 19:00:00 14,9 11,8 13,4 17,0 15,8 5 3 13 7 NNW 1015,7 16 60 0,0
21.09.2020 18:00:00 15,8 12,2 18,7 17,8 15,7 9 5 16 9 S 1016,0 19 60 0,0
21.09.2020 17:00:00 17,0 11,9 21,6 18,4 15,5 3 2 19 11 NNW 1016,6 23 60 0,0
21.09.2020 16:00:00 17,4 11,8 24,4 18,4 15,2 6 3 14 8 SSE 1017,3 23 60 0,0
21.09.2020 15:00:00 15,6 11,1 24,2 17,8 14,9 7 4 15 8 SSE 1017,8 24 60 0,0
21.09.2020 14:00:00 14,5 11,4 22,7 16,6 14,7 4 2 19 11 SSE 1018,4 16 54 0,0
21.09.2020 13:00:00 11,8 10,4 15,4 15,4 14,6 3 2 20 11 SW 1018,7 9 1 0,0
21.09.2020 12:00:00 11,3 11,0 13,7 14,9 14,6 13 7 22 12 SSE 1018,8 6 0 0,0
21.09.2020 11:00:00 10,7 10,6 13,0 14,3 14,5 11 6 19 10 SE 1019,1 0,4 0 0,0
21.09.2020 10:00:00 9,9 9,8 11,4 13,9 14,6 11 6 18 10 E 1019,3 0,1 0 0,0
21.09.2020 09:00:00 9,5 9,4 10,4 13,7 14,6 9 5 16 8 ENE 1019,5 0,1 0 0,0
21.09.2020 08:00:00 9,9 9,9 10,2 13,6 14,7 8 5 16 8 NE 1019,9 0,1 0 0,0
21.09.2020 07:00:00 9,3 9,2 9,5 13,6 14,7 12 6 21 12 ESE 1019,6 0,1 0 0,1
21.09.2020 06:00:00 9,1 9,0 9,3 13,8 14,8 11 6 18 10 E 1020,0 0,1 0 0,0
21.09.2020 05:00:00 10,1 10,1 10,2 13,8 14,9 8 5 13 7 ENE 1020,5 0,1 0 0,0
21.09.2020 04:00:00 10,0 9,9 9,8 13,9 15,0 10 5 16 9 E 1020,5 0,1 0 0,1
21.09.2020 03:00:00 10,7 10,5 10,6 14,0 15,0 12 6 19 11 E 1020,8 0,1 0 0,0
21.09.2020 02:00:00 12,0 11,7 11,9 13,9 15,1 10 6 15 8 ENE 1020,9 0,1 0 0,0
21.09.2020 01:00:00 12,0 11,5 10,5 14,1 15,3 13 7 17 9 NE 1021,1 3,4 0 0,0
21.09.2020 00:00:00 12,8 12,1 11,0 14,3 15,4 12 7 16 9 ENE 1021,2 11 0 0,0
20.09.2020 23:00:00 12,9 12,2 11,5 14,5 15,5 13 7 21 12 NE 1021,3 13 0 0,0
20.09.2020 22:00:00 12,8 12,0 10,8 14,9 15,6 16 9 20 11 NNE 1021,5 18 0 0,0
20.09.2020 21:00:00 13,2 12,2 11,2 15,5 15,7 16 9 25 13 NNE 1021,7 24 0 0,0
20.09.2020 20:00:00 13,7 12,1 11,8 16,2 15,8 21 11 28 15 N 1021,4 33 11 0,0
20.09.2020 19:00:00 15,2 12,2 14,3 16,9 15,7 19 10 23 13 N 1021,0 37 60 0,0
20.09.2020 18:00:00 16,5 12,2 18,2 17,6 15,6 12 7 18 10 NNE 1021,1 49 60 0,0
20.09.2020 17:00:00 15,9 12,3 19,5 18,2 15,4 12 6 27 15 NE 1021,5 32 60 0,0
20.09.2020 16:00:00 15,5 12,2 19,3 18,4 15,2 23 12 34 18 NNE 1022,0 27 34 0,0
20.09.2020 15:00:00 16,8 12,3 23,0 18,0 14,8 27 15 37 20 N 1022,1 34 60 0,0
20.09.2020 14:00:00 17,0 12,4 23,0 17,3 14,5 20 11 30 16 N 1022,3 39 60 0,0
20.09.2020 13:00:00 15,3 11,6 21,7 16,1 14,3 17 9 27 14 NNE 1022,3 37 60 0,0

tt = temperature
td = dewpoint
tt 5cm = temperature 5cm
tt -5cm = temperature -5cm
tt -20cm = temperature -20cm
ff = wind speed
fx = gusts
dd = wind direction
ppp = reduced air pressure
vv = visibility
sd = sunshine duration
rr = precipitation

Next stations